FW9372 Weather Reports


Display with metric or nautical units.
time (UTC)temp
F
wind
direction
speed
MPH
gust
MPH
rain 1hr
in
rain 24hr
in
rain mn
in
humidity
%
barometer
mb
20260905123110 74 0 0.0 0.0 0.00 0.00 0.00 99 1012.4
20260905121605 74 0 0.0 0.0 0.00 0.00 0.00 99 1012.4
20260905120114 73 0 0.0 0.0 0.00 0.00 0.00 99 1012.3
20260905114602 73 0 0.0 0.0 0.00 0.00 0.00 99 1012.2
20260905113107 73 0 0.0 0.0 0.00 0.00 0.00 99 1012.0
20260905111614 73 0 0.0 0.0 0.00 0.00 0.00 99 1011.7
20260905110105 73 0 0.0 0.0 0.00 0.00 0.00 99 1011.4
20260905104607 72 0 0.0 0.0 0.00 0.00 0.00 99 1011.3
20260905103106 72 0 0.0 0.0 0.00 0.00 0.00 99 1011.4
20260905101606 73 0 0.0 0.0 0.00 0.00 0.00 99 1011.4
20260905100107 73 0 0.0 0.0 0.00 0.00 0.00 99 1011.3
20260905094603 73 0 0.0 0.0 0.00 0.00 0.00 99 1011.3
20260905093105 73 0 0.0 0.0 0.00 0.00 0.00 99 1011.2
20260905091609 73 0 0.0 0.0 0.00 0.00 0.00 99 1011.0
20260905090106 73 0 0.0 0.0 0.00 0.00 0.00 99 1010.8
20260905084620 74 0 0.0 0.0 0.00 0.00 0.00 99 1010.9
20260905083111 73 0 0.0 0.0 0.00 0.00 0.00 99 1010.8
20260905081604 73 0 0.0 0.0 0.00 0.00 0.00 99 1010.9
20260905080105 73 0 0.0 0.0 0.00 0.00 0.00 98 1011.1
20260905074607 73 0 0.0 0.0 0.00 0.00 0.00 98 1011.0
20260905073108 74 0 0.0 0.0 0.00 0.00 0.00 98 1011.2
20260905071608 74 0 0.0 0.0 0.00 0.00 0.00 98 1011.2
20260905070110 74 0 0.0 0.0 0.00 0.00 0.00 98 1011.3
20260905063109 74 0 0.0 0.0 0.00 0.00 0.00 98 1011.5
20260905061611 74 0 0.0 0.0 0.00 0.00 0.00 98 1011.7
20260905060107 74 0 0.0 0.0 0.00 0.00 0.00 98 1011.8
20260905054607 75 0 0.0 0.0 0.00 0.00 0.00 98 1011.8
20260905053142 75 0 0.0 0.0 0.00 0.00 0.00 98 1011.8
20260905051604 75 0 0.0 0.0 0.00 0.00 0.00 97 1011.8
20260905050108 75 0 0.0 0.0 0.00 0.00 0.00 97 1012.0
20260905044611 75 0 0.0 0.0 0.00 0.00 0.00 97 1012.0
20260905043111 75 0 0.0 0.0 0.00 0.00 0.00 97 1011.9
20260905041608 76 0 0.0 0.0 0.00 0.00 0.00 97 1012.0
20260905040111 76 0 0.0 0.0 0.00 0.00 0.00 96 1012.0
20260905034606 76 0 0.0 0.0 0.00 0.00 0.00 96 1011.9
20260905033107 76 0 0.0 0.0 0.00 0.00 0.00 96 1012.0
20260905031605 76 0 0.0 0.0 0.00 0.00 0.00 95 1012.1
20260905030109 76 0 0.0 0.0 0.00 0.00 0.00 96 1012.1
20260905024624 76 0 0.0 0.0 0.00 0.00 0.00 95 1012.1
20260905023124 77 0 0.0 0.0 0.00 0.00 0.00 95 1012.0
20260905021617 77 0 0.0 0.0 0.00 0.00 0.00 94 1012.0
20260905020112 78 0 0.0 0.0 0.00 0.00 0.00 94 1012.0
20260905014616 78 0 0.0 0.0 0.00 0.00 0.00 93 1012.0
20260905013105 79 0 0.0 0.0 0.00 0.00 0.00 93 1011.7
20260905011623 79 0 0.0 0.0 0.00 0.00 0.00 93 1011.5
20260905010123 79 0 0.0 0.0 0.00 0.00 0.00 92 1011.6
20260905004609 80 0 0.0 0.0 0.00 0.00 0.00 91 1011.4
20260905003107 81 0 0.0 0.0 0.00 0.00 0.00 91 1011.4
20260905001607 82 0 0.0 0.0 0.00 0.00 0.00 90 1011.4
20260905000114 83 0 0.0 0.0 0.00 0.00 0.00 89 1011.4
20260904234614 84 0 0.0 0.0 0.00 0.00 0.00 88 1011.5
20260904233107 85 0 0.0 0.0 0.00 0.00 0.00 86 1011.5
20260904231612 87 0 0.0 0.0 0.00 0.00 0.00 83 1011.4
20260904230109 89 0 0.0 0.0 0.00 0.00 0.00 81 1011.2
20260904224614 90 0 0.0 0.0 0.00 0.00 0.00 79 1011.3
20260904223109 91 0 0.0 0.0 0.00 0.00 0.00 77 1011.3
20260904221609 92 0 0.0 0.0 0.00 0.00 0.00 76 1011.4
20260904220113 94 0 0.0 0.0 0.00 0.00 0.00 74 1011.4
20260904214614 96 0 0.0 0.0 0.00 0.00 0.00 71 1011.4
20260904213110 97 0 0.0 0.0 0.00 0.00 0.00 70 1011.4
20260904211613 99 0 0.0 0.0 0.00 0.00 0.00 64 1011.6
20260904210108 99 0 0.0 0.0 0.00 0.00 0.00 61 1011.8
20260904204604 99 0 0.0 0.0 0.00 0.00 0.00 60 1011.8
20260904203108 97 0 0.0 0.0 0.00 0.00 0.00 63 1012.1
20260904201637 96 0 0.0 0.0 0.00 0.00 0.00 58 1012.3
20260904200122 94 0 0.0 0.0 0.00 0.00 0.00 72 1012.5
20260904194613 94 0 0.0 0.0 0.00 0.00 0.00 74 1012.8
20260904193111 94 0 0.0 2.0 0.00 0.00 0.00 69 1013.1
20260904191606 92 0 0.0 4.0 0.00 0.00 0.00 70 1013.4
20260904190120 89 0 0.0 5.0 0.00 0.00 0.00 74 1013.6
20260904184605 90 0 0.0 0.0 0.00 0.00 0.00 77 1013.7
20260904183108 94 0 0.0 0.0 0.00 0.00 0.00 70 1013.7
20260904181607 96 0 0.0 4.0 0.00 0.00 0.00 60 1013.7
20260904180111 97 0 1.0 6.0 0.00 0.00 0.00 63 1013.8
20260904174607 95 0 0.0 1.0 0.00 0.00 0.00 62 1014.0
20260904173128 96 0 0.0 0.0 0.00 0.00 0.00 60 1014.2
20260904171611 96 0 0.0 0.0 0.00 0.00 0.00 59 1014.3
20260904170110 95 0 0.0 2.0 0.00 0.00 0.00 62 1014.5
20260904164612 95 0 0.0 1.0 0.00 0.00 0.00 63 1014.4
20260904163102 94 0 0.0 1.0 0.00 0.00 0.00 61 1014.4
20260904161605 94 0 0.0 5.0 0.00 0.00 0.00 63 1014.5
20260904160111 94 0 0.0 0.0 0.00 0.00 0.00 66 1014.5
20260904154607 92 0 0.0 0.0 0.00 0.00 0.00 65 1014.5
20260904153107 92 0 0.0 1.0 0.00 0.00 0.00 66 1014.5
20260904151616 91 0 0.0 1.0 0.00 0.00 0.00 70 1014.5
20260904150130 90 0 0.0 0.0 0.00 0.00 0.00 71 1014.5
20260904144604 90 0 0.0 0.0 0.00 0.00 0.00 75 1014.6
20260904143117 88 0 0.0 0.0 0.00 0.00 0.00 82 1014.4
20260904141617 86 0 0.0 0.0 0.00 0.00 0.00 87 1014.4
20260904140109 83 0 0.0 0.0 0.00 0.00 0.00 97 1014.3
20260904134620 79 0 0.0 0.0 0.00 0.00 0.00 99 1014.3
20260904133113 78 0 0.0 0.0 0.00 0.00 0.00 100 1014.3
20260904131607 77 0 0.0 0.0 0.00 0.00 0.00 100 1014.3
20260904130110 75 0 0.0 0.0 0.00 0.00 0.00 100 1014.1
20260904124605 74 0 0.0 0.0 0.00 0.00 0.00 100 1014.1